Location: Kolow
(53.3254°N, 14.6815°E)
Time: 13:59:24
(UTC+00:00)

Daily predictions for brighter satellites

Satellite Brightness Start Highest point End
(mag) Time Altitude Azimuth Time Altitude Azimuth Time Altitude Azimuth
ATLAS 2AS CENTAUR R/B 3.0 19:33:30 10° SW 19:41:24 77° SE 19:49:04 10° NE
Cosmos 2333 Rocket 3.9 19:39:15 10° NNW 19:43:52 25° NNE 19:48:27 10° E
Cosmos 2058 3.7 19:40:15 10° SSW 19:44:23 58° WNW 19:48:34 10° N
Cosmos 1606 3.4 19:40:57 10° NNW 19:44:39 55° W 19:48:21 10° S
Cosmos 371 Rocket 3.6 19:41:58 10° NNW 19:46:46 69° WSW 19:51:33 10° SSE
Cosmos 773 Rocket 4.0 19:41:35 10° SSW 19:46:48 86° ESE 19:52:00 10° NNE
ATLAS 3B R/B 3.2 19:39:57 10° NW 19:46:53 63° SW 19:54:06 10° SSE
BREEZE-M DEB (TANK) 3.1 19:46:38 10° SW 19:48:56 22° S 19:50:32 10° ESE
Cosmos 2056 Rocket 4.5 19:46:49 10° NNW 19:51:51 37° NE 19:56:47 10° ESE
CZ-4C R/B 4.0 19:48:39 10° W 19:53:55 38° NNW 20:00:16 10° NE
Cosmos 1633 2.6 19:50:58 10° SSW 19:54:35 86° WNW 19:58:14 10° N
RESURS DK-1 2.3 19:50:33 10° SSW 19:54:41 75° ESE 19:58:52 10° NE
OBJECT-B 4.0 19:54:39 10° WSW 19:55:35 11° W 19:56:32 10° WNW
CARTOSAT-1 3.7 19:53:31 10° SSE 19:57:48 68° ENE 20:02:07 10° N
Cosmos 1812 4.0 19:55:31 10° N 19:58:50 26° ENE 20:02:08 10° SE
Cosmos 1980 Rocket 3.2 19:53:37 10° NW 19:58:53 42° WSW 20:04:09 10° S
Cosmos 2151 3.1 19:55:09 10° S 19:59:19 59° E 20:03:33 10° NNE
USA 276 3.0 19:57:08 10° W 20:00:03 34° SSW 20:02:52 11° SE
Cosmos 1933 3.3 19:58:24 10° N 20:02:30 83° E 20:06:33 10° SSE
BREEZE-M DEB (TANK) 4.2 20:00:23 10° SSW 20:04:29 42° SE 20:18:17 10° ENE
ERS-1 Rocket 3.2 20:00:58 10° SSE 20:05:55 62° ENE 20:10:54 10° N
SPOT 5 2.8 20:02:35 10° SSE 20:06:49 58° ENE 20:11:10 10° N
COSMOS 2406 4.1 20:02:13 10° SW 20:07:48 57° NW 20:13:28 10° NNE
ARIANE 5 R/B 2.7 20:04:00 10° SSE 20:08:29 73° ENE 20:12:55 10° NNW
Terra 2.3 20:04:41 10° SE 20:09:15 48° ENE 20:13:50 10° N
Cosmos 2322 Rocket 2.4 20:03:36 10° NNW 20:09:16 69° NE 20:14:40 11° SE
JB-3 4.5 20:06:20 10° NNE 20:10:29 62° E 20:14:33 10° S
SPOT 3 Rocket 4.4 20:06:33 10° S 20:11:38 51° W 20:16:45 10° NNW
Cosmos 158 Rocket 4.1 20:07:05 10° S 20:12:08 57° ESE 20:17:21 10° NNE
Cosmos 1371 Rocket 4.5 20:08:07 10° NNW 20:13:25 55° ENE 20:18:22 12° SE
Gbstr 26 Del rocket 3.3 20:11:05 10° W 20:14:36 40° SSW 20:17:56 12° SE
ATLAS CENTAUR R/B 4.4 20:09:08 10° WNW 20:15:41 76° NNE 20:33:47 10° ESE
Cosmos 2195 Rocket 4.5 20:10:09 10° S 20:16:13 68° E 20:22:18 10° NNE
Spot 2 Rocket 3.6 20:12:31 10° SSE 20:17:38 82° WSW 20:22:47 10° NNW
Cosmos 1680 Rocket 4.2 20:14:54 10° SSE 20:19:37 34° ESE 20:24:19 10° NE
Meteor 2-3 Rocket 3.8 20:15:31 10° S 20:21:09 72° E 20:26:53 10° NNE
Cosmos 332 Rocket 4.4 20:18:50 10° NNW 20:23:37 55° WSW 20:28:23 10° S
Cosmos 1766 Rocket 4.1 20:20:52 10° SSE 20:24:56 42° E 20:29:05 10° NNE
ERS-2 4.0 20:21:55 10° N 20:25:15 33° WNW 20:28:33 10° SW
ISS -1.9 20:24:04 10° W 20:26:37 20° SSW 20:28:39 13° S
Cosmos 1151 Rocket 3.1 20:22:43 10° N 20:27:05 73° ENE 20:31:00 13° SSE
Cosmos 1328 Rocket 3.8 20:23:41 10° N 20:28:07 60° ENE 20:31:51 14° SSE
USA 234 3.5 20:22:05 10° E 20:28:38 76° NNE 20:35:12 10° WNW
Cosmos 1862 4.4 20:27:07 14° SE 20:29:46 28° E 20:33:11 10° NNE
Cosmos 2219 Rocket 3.3 20:26:56 10° NNW 20:32:04 35° NE 20:37:10 10° ESE
Cosmos 1782 2.9 20:28:24 10° NNW 20:32:28 80° WSW 20:36:11 12° S
Cosmos 1092 Rocket 4.1 20:26:56 10° S 20:33:13 90° NW 20:39:36 10° N
SL-16 R/B 2.4 20:31:23 10° NW 20:37:02 67° WSW 20:42:00 13° SSE
Cosmos 2237 4.3 20:33:20 10° NNW 20:39:05 84° ENE 20:43:50 15° SSE
Cosmos 1538 Rocket 4.3 20:34:16 10° SSW 20:39:28 72° WNW 20:44:40 10° NNE
Meteor 2-6 Rocket 4.2 20:35:46 10° N 20:41:13 69° ENE 20:45:39 15° SSE
COSMOS 2428 3.9 20:36:58 10° NNW 20:42:12 35° NE 20:47:24 10° ESE
Cosmos 1271 Rocket 3.8 20:42:17 10° NNW 20:46:05 43° W 20:49:51 10° SSW
Cosmos 2026 Rocket 4.1 20:41:12 10° S 20:47:33 88° W 20:53:52 10° N
CZ-2C R/B 4.4 20:44:49 10° N 20:49:19 57° WNW 20:53:42 10° SSW
GP-B 3.6 20:45:11 10° N 20:49:35 61° W 20:53:57 10° SSW
Gblst 52 Del rocket 4.4 20:44:54 10° W 20:50:52 77° S 20:57:43 10° E
Cosmos 292 Rocket 4.0 20:48:10 10° NNW 20:52:54 60° ENE 20:56:23 18° SE
Cosmos 1624 Rocket 4.0 20:49:08 10° NNW 20:54:22 88° WSW 20:58:20 18° SSE
ATLAS 5 CENTAUR R/B 3.0 20:56:54 10° NW 21:01:48 46° NNE 21:07:37 10° ESE
Meteor 1-27 Rocket 4.1 20:58:28 10° N 21:03:58 54° ENE 21:08:00 19° SE
NOSS 3-1 (C) 4.1 20:56:51 10° NW 21:03:59 82° NE 21:11:25 14° SE
NOSS 2-1 (E) 4.1 21:04:02 23° SE 21:04:15 23° ESE 21:07:02 10° ENE
Cosmos 1420 Rocket 4.1 21:00:54 10° NNW 21:06:16 82° ENE 21:10:02 20° SSE
Cosmos 1500 Rocket 4.4 21:06:06 21° SE 21:08:24 35° E 21:12:27 10° NNE
Okean 3 Rocket 3.7 21:04:43 11° SSW 21:09:01 81° W 21:13:35 10° N
Cosmos 2082 Rocket 3.8 21:08:10 10° WSW 21:13:25 38° NW 21:18:44 10° NNE
Cosmos 2285 Rocket 4.4 21:08:58 10° NNW 21:15:11 56° ENE 21:19:57 17° SE
USA 229 DEB 4.1 21:10:28 10° NW 21:17:37 71° NE 21:24:45 12° ESE
USA 229 4.1 21:10:34 10° NW 21:17:43 70° NE 21:24:51 12° ESE
Cosmos 2315 Rocket 4.3 21:13:50 10° N 21:20:05 60° ENE 21:24:28 20° SSE
Cosmos 2360 Rocket 2.4 21:16:14 10° NW 21:21:50 66° WSW 21:25:36 21° SSE
Meteor 2-16 Rocket 4.5 21:18:19 18° S 21:22:57 67° E 21:29:01 10° NNE
Meteor 1-10 Rocket 4.3 21:18:34 10° NNW 21:24:09 76° W 21:28:05 20° S
Cosmos 1452 Rocket 3.7 21:19:28 10° NNW 21:24:44 65° ENE 21:28:11 21° SE
Cosmos 1553 Rocket 4.4 21:19:26 10° NNW 21:25:22 57° W 21:30:30 14° SSW
Cosmos 1174 3.0 21:22:28 10° NW 21:25:31 69° SW 21:26:33 36° SSE
Cosmos 923 Rocket 4.4 21:20:39 10° SW 21:25:58 67° WNW 21:31:20 10° NNE
Cosmos 1408 Rocket 3.5 21:24:13 19° S 21:27:17 86° ESE 21:31:40 10° NNE
Cosmos 1743 Rocket 3.9 21:25:29 24° SSE 21:27:51 51° E 21:32:11 10° NNE
Cosmos 2333 Rocket 2.2 21:23:19 10° NNW 21:29:01 81° ENE 21:32:47 22° SE
Cosmos 1833 4.5 21:27:23 18° S 21:31:29 52° ESE 21:37:05 10° NE
ATLAS 2AS CENTAUR R/B 4.0 21:25:20 10° W 21:32:58 50° NNW 21:40:15 10° NE
Cosmos 2056 Rocket 4.2 21:29:00 10° NW 21:34:09 47° WSW 21:37:36 19° S
Cosmos 2266 Rocket 4.0 21:29:46 19° S 21:34:14 72° E 21:40:28 10° NNE
Cosmos 1812 4.0 21:31:09 10° NNW 21:34:40 34° W 21:37:16 16° SSW
USA 267 3.5 21:29:02 10° ENE 21:35:17 45° SE 21:41:31 10° SSW
USA 276 4.5 21:34:08 10° WSW 21:35:05 12° SW 21:35:05 12° SW
Spot 4 4.0 21:34:56 24° SSE 21:37:45 68° ENE 21:42:34 10° N
NOSS 3-1 (A) 4.1 21:30:54 10° NW 21:38:03 82° NE 21:45:18 15° SE
Sich 1 4.0 21:37:41 24° SE 21:39:24 32° E 21:43:16 10° NNE
COSMOS 2487 3.6 21:40:06 24° ESE 21:40:21 25° ESE 21:43:10 10° NE
Cosmos 2322 3.7 21:34:36 10° NNW 21:40:22 90° ENE 21:43:59 24° SSE
Cosmos 2228 Rocket 3.1 21:37:11 10° N 21:41:36 76° ENE 21:43:53 28° SSE
IRIDIUM 104 4.3 21:36:55 10° N 21:42:10 78° E 21:45:16 25° SSE
USA 40 PKM 4.2 21:39:02 10° WNW 21:42:56 85° SSW 21:45:09 22° ESE
CZ-4C R/B 4.1 21:38:14 10° NW 21:44:00 37° NNE 21:50:54 10° ENE
Cosmos 2084 3.3 21:42:47 17° SSW 21:45:52 61° SE 21:50:01 10° NE
SL-27 R/B 2.4 21:44:33 25° SSW 21:46:34 89° WNW 21:50:12 10° NNE
Cosmos 1515 Rocket 4.4 21:42:45 10° NNW 21:46:59 44° W 21:49:44 20° SSW
Terra 3.4 21:43:31 12° SSW 21:47:12 28° W 21:51:20 10° NW
NOSS 2-1 (C) 2.8 21:46:54 28° SSW 21:48:26 64° SE 21:51:55 10° NE
Cosmos 1655 Rocket 4.1 21:43:54 17° SSW 21:48:58 85° W 21:55:26 10° N
IRIDIUM 114 4.3 21:46:03 10° N 21:51:19 90° W 21:54:23 26° S
Cosmos 2297 Rocket 4.3 21:50:21 10° ESE 21:51:57 11° E 21:53:34 10° ENE
Cosmos 1110 Rocket 4.4 21:46:46 10° NNW 21:52:05 60° ENE 21:55:24 22° SE
Cosmos 2237 Rocket 3.2 21:46:54 10° NNW 21:52:17 41° NE 21:57:11 12° ESE
Cosmos 2322 Rocket 3.7 21:48:16 10° NW 21:52:52 26° WSW 21:56:28 14° SSW
NOSS 2-1 (D) 2.7 21:54:20 25° SW 21:56:07 75° SE 21:59:39 10° NE
H-2A R/B 4.1 21:53:15 10° N 21:57:20 53° WNW 22:00:38 15° SW
Cosmos 1331 Rocket 4.3 21:53:20 10° NNW 21:58:33 61° ENE 22:01:44 23° SE
Okean 1 3.9 21:56:10 10° N 22:00:05 46° ENE 22:01:44 29° SE
IRIDIUM 103 4.4 21:55:14 10° N 22:00:29 78° W 22:03:31 26° S
Cosmos 1680 Rocket 4.4 21:56:30 10° SW 22:01:36 48° NW 22:06:42 10° NNE
Cosmos 2227 Rocket 4.3 22:02:47 10° E 22:03:31 10° E 22:04:16 10° E
COSMOS 2455 3.1 22:05:54 25° S 22:09:14 51° ESE 22:15:03 10° NE
Cosmos 1500 4.4 22:09:34 25° ESE 22:10:31 28° E 22:13:51 10° NNE
Meteor 1-19 Rocket 4.3 22:05:24 10° N 22:11:07 69° ENE 22:14:11 27° SSE
USA 234 3.3 22:07:28 22° SE 22:11:50 60° SW 22:18:20 10° WNW
Cosmos 1707 Rocket 3.5 22:09:10 10° N 22:13:32 74° ENE 22:15:24 34° SSE
ALOS 2 2.6 22:13:01 33° SSE 22:14:59 85° ENE 22:19:24 10° NNW
Cosmos 2219 Rocket 2.3 22:10:52 10° NW 22:16:23 61° WSW 22:19:12 29° S
SL-16 R/B 3.9 22:13:36 10° NNW 22:18:33 30° NE 22:23:30 10° E
COBE Rocket 4.3 22:16:53 26° SSW 22:19:12 48° W 22:23:46 10° NNW
NOSS 2-2 (E) 4.4 22:15:12 10° NW 22:20:03 69° NE 22:26:32 11° ESE
SL-16 R/B 4.4 22:17:27 10° WNW 22:20:05 13° W 22:22:42 10° WSW
Meteor 2-4 Rocket 4.3 22:17:55 10° N 22:23:46 55° ENE 22:27:21 23° SE
COSMOS 2428 2.9 22:21:13 10° NW 22:26:51 62° WSW 22:29:40 29° S
Cosmos 1602 3.6 22:30:36 42° S 22:31:51 78° E 22:35:43 10° NNE
Lacrosse 5 3.7 22:34:25 15° ESE 22:34:25 15° ESE 22:36:44 10° E
Cosmos 1805 Rocket 3.8 22:32:29 28° SSW 22:34:44 65° WNW 22:39:10 10° N
Cosmos 494 Rocket 4.1 22:33:21 32° S 22:35:35 59° ESE 22:40:38 10° NNE
Cosmos 1515 4.0 22:32:53 10° NNW 22:36:36 55° W 22:37:44 38° SSW
Cosmos 1048 Rocket 3.9 22:36:20 29° SSW 22:38:57 78° ESE 22:44:05 10° NNE
Cosmos 1244 Rocket 4.4 22:38:33 28° S 22:42:03 86° E 22:48:18 10° NNE
CZ-3B R/B 2.8 22:36:20 10° WNW 22:43:37 36° SW 22:44:25 33° SSW
NOSS 2-2 (C) 4.3 22:39:12 10° NW 22:44:02 78° NE 22:50:15 12° SE
ATLAS 5 CENTAUR R/B 2.3 22:41:23 10° NW 22:46:43 61° SW 22:49:59 28° SSE
Cosmos 1302 Rocket 4.0 22:45:48 10° NNW 22:51:03 81° ENE 22:53:51 28° SSE
NOSS 2-1 (E) 4.1 22:51:16 10° WSW 22:54:25 44° NNW 22:58:04 10° NE
Nimbus 7 Rocket 4.5 22:49:14 10° NNE 22:55:17 72° ESE 22:58:29 29° S
Cosmos 2219 4.4 22:53:57 22° SE 22:56:04 28° ESE 23:00:54 10° NE
NOSS 0 Rocket 4.0 22:51:07 10° NW 22:57:17 63° WSW 23:00:29 29° S
SAR-Lupe-2 3.9 22:54:34 10° NNE 22:58:06 52° ESE 22:58:50 43° SE
Cosmos 2242 Rocket 4.2 22:56:45 10° N 23:01:03 49° ENE 23:03:08 27° SE
Cosmos 1666 3.1 23:02:00 40° SE 23:03:01 53° E 23:06:47 10° NNE
Thor Agena Rocket 3.8 22:58:53 10° NNE 23:03:52 55° ESE 23:06:01 32° SSE
Okean 1-7 3.5 23:00:24 10° N 23:04:35 51° ENE 23:06:27 29° SE
Cosmos 2360 Rocket 4.3 23:02:20 10° WNW 23:04:45 13° W 23:07:10 10° WSW
USA 229 DEB 4.4 23:01:38 10° NW 23:08:26 43° WSW 23:12:08 27° S
USA 229 4.4 23:01:43 10° NW 23:08:32 44° WSW 23:12:15 27° S
Cosmos 2333 Rocket 3.7 23:08:27 10° NW 23:12:40 22° WSW 23:14:46 18° SW
Cosmos 1980 3.7 23:07:36 10° NW 23:13:14 66° WSW 23:16:00 30° S
Cosmos 1470 Rocket 3.5 23:11:57 39° S 23:13:30 76° E 23:17:50 10° NNE
COSMOS 2487 3.9 23:13:20 20° WSW 23:15:03 31° WNW 23:18:08 10° N
Cosmos 2084 Rocket 3.5 23:11:45 10° NW 23:15:51 56° SW 23:17:04 40° S
Geosat 4.0 23:14:35 31° SSE 23:17:01 72° WSW 23:22:04 10° NW
Sich 1 4.3 23:14:38 20° WSW 23:17:02 34° WNW 23:21:01 10° N
USA 267 3.3 23:12:07 10° ENE 23:18:42 87° NNW 23:25:17 10° WSW
Cosmos 1633 Rocket 3.3 23:17:04 32° SW 23:18:55 60° WNW 23:23:15 10° N
APEX 4.4 23:16:51 29° SSW 23:19:57 74° ESE 23:26:39 10° NE
Cosmos 1933 Rocket 3.8 23:18:33 35° SSE 23:20:14 60° E 23:24:39 10° NNE
Cosmos 1340 Rocket 3.2 23:19:57 37° SSE 23:21:04 51° E 23:24:54 10° NNE
Cosmos 1666 Rocket 4.2 23:20:10 27° SW 23:22:13 48° WNW 23:26:33 10° N
PSLV R/B 3.8 23:18:49 10° NNE 23:23:37 71° ESE 23:25:38 34° S
ATLAS 2AS CENTAUR R/B 4.4 23:18:24 10° WNW 23:25:32 38° N 23:32:16 10° ENE
ASTEX 1 4.4 23:23:44 19° SE 23:26:48 40° ENE 23:31:24 10° N
CZ-2D R/B 4.1 23:23:22 10° NE 23:27:10 19° E 23:30:40 11° SE
MTI 4.2 23:28:17 10° N 23:31:11 45° WNW 23:31:42 40° WSW
EO 1 Del DPAF 3.9 23:29:57 10° NNE 23:33:31 42° E 23:34:34 33° SE
CZ-4C R/B 3.2 23:26:59 10° NW 23:33:40 66° NE 23:41:43 10° ESE
Cosmos 2297 Rocket 2.4 23:32:09 30° S 23:34:48 58° ESE 23:40:23 10° NE
Cosmos 2237 Rocket 2.5 23:31:02 10° NW 23:36:30 49° WSW 23:38:58 30° S
MOZ.5/SAFIR/RUBIN 5/SL-8 4.4 23:34:49 20° SE 23:37:56 53° ENE 23:42:30 10° N
Cosmos 1709 Rocket 4.1 23:34:50 27° S 23:38:26 73° E 23:44:49 10° NNE
NOSS 2-2 (D) 4.4 23:36:26 10° NW 23:41:26 57° SW 23:45:55 21° SSE
Cosmos 2227 Rocket 2.5 23:43:37 29° S 23:46:19 55° ESE 23:51:51 10° NE
Cosmos 1745 Rocket 4.2 23:43:09 26° SSW 23:46:48 67° WNW 23:53:06 10° N
Meteor 1-11 Rocket 3.8 23:46:25 28° S 23:49:20 66° E 23:54:49 10° NNE
